This is the latest recevied weather packets stored in our database for station/object VA3BOO. If no packets are shown the sender has not sent any weather packets the latest 10 day(s).
| Time | Temp. | Humidity | Pressure | Rain* | Wind** | Luminosity | Snow |
|---|---|---|---|---|---|---|---|
| 1777588804 | 8.33° C | 79% | 1010.1 hPa | 0 mm | - | 68 W/m² | - |
| 1777588504 | 8.33° C | 79% | 1010 hPa | 0 mm | - | 72 W/m² | - |
| 1777588204 | 8.33° C | 79% | 1010 hPa | 0 mm | - | 67 W/m² | - |
| 1777587904 | 8.33° C | 78% | 1009.9 hPa | 0 mm | - | 66 W/m² | - |
| 1777587604 | 8.33° C | 81% | 1009.9 hPa | 0 mm | - | 52 W/m² | - |
| 1777587304 | 8.33° C | 83% | 1010.1 hPa | 0 mm | - | 59 W/m² | - |
| 1777587004 | 8.33° C | 82% | 1009.7 hPa | 0 mm | - | 73 W/m² | - |
| 1777586704 | 8.33° C | 82% | 1010 hPa | 0 mm | - | 60 W/m² | - |
| 1777586404 | 8.33° C | 81% | 1009.9 hPa | 0 mm | - | 31 W/m² | - |
| 1777586104 | 8.89° C | 82% | 1009.8 hPa | 0 mm | - | 64 W/m² | - |
| 1777585804 | 8.89° C | 81% | 1009.8 hPa | 0 mm | - | 85 W/m² | - |
| 1777585504 | 8.89° C | 84% | 1009.7 hPa | 0 mm | - | 58 W/m² | - |
| 1777585204 | 8.89° C | 85% | 1009.8 hPa | 0 mm | - | 78 W/m² | - |
| 1777584904 | 8.89° C | 85% | 1009.8 hPa | 0 mm | - | 84 W/m² | - |
| 1777584604 | 8.89° C | 84% | 1009.7 hPa | 0 mm | - | 83 W/m² | - |
| 1777584304 | 8.89° C | 84% | 1009.7 hPa | 0 mm | - | 89 W/m² | - |
| 1777584004 | 8.89° C | 83% | 1009.6 hPa | 0 mm | - | 72 W/m² | - |
| 1777583704 | 8.89° C | 81% | 1009.6 hPa | 0 mm | - | 80 W/m² | - |
| 1777583404 | 8.89° C | 82% | 1009.4 hPa | 0 mm | - | 79 W/m² | - |
| 1777583104 | 8.89° C | 81% | 1009.3 hPa | 0 mm | - | 75 W/m² | - |
| 1777582804 | 8.33° C | 81% | 1009.2 hPa | 0 mm | - | 98 W/m² | - |
| 1777582504 | 8.89° C | 79% | 1009.3 hPa | 0 mm | - | 134 W/m² | - |
| 1777582204 | 8.33° C | 80% | 1009.2 hPa | 0 mm | - | 153 W/m² | - |
| 1777581904 | 8.33° C | 81% | 1009.3 hPa | 0 mm | - | 112 W/m² | - |
| 1777581604 | 7.78° C | 81% | 1009.2 hPa | 0 mm | - | 101 W/m² | - |
* Rain latest hour (hover to see other rain measurements)
** Current wind speed in m/s (hover to see current wind gust speed)